THOR ABLESTAR DEB, 1943

Orbit data source: Space-Track

THOR ABLESTAR DEB, 1943 is space debris in LEO originally from a launch on Thu, 29 Jun 1961 UTC launched from the Air Force Eastern Test Range (AFETR). Debris objects in space refer to the collection of defunct objects orbiting the Earth. Examples of debris include non-operational satellites, rocket bodies, and fragments generated from explosions, collisions, or faulty payload assembly.

Loading next visibility...
Identifier
1943, 1961-015HT
Orbit
LEO
Country
Flag of USUS
Related business
Manufacturer
Unknown
Mission
Spacecraft
Bus & Motor
Unknown
Mass
Unknown
Launch date (UTC)
1961-06-29 (64 years ago)
Launch vehicle
Unknown
Launch site
Air Force Eastern Test Range (AFETR)
Object type
Payload
Rocket body
Debris
Shape & HBR
Unknown
Radar Cross Section
Small (<0.1 m²)

Expand to show TLE details & history
Last TLE update: 1 day ago

TLE from 1 day ago
0 THOR ABLESTAR DEB
1 01943U 61015HT  25259.88550953  .00000800  00000-0  35827-3 0  9992
2 01943  66.8562 160.9243 0049981 145.8741 214.5587 14.26942021305155
Epoch: 2025-09-16T21:15Z
TLE epoch observation values (Epoch: 2025-09-16T21:15:08.023Z)
Latitude
-0.00006°
Longitude
-153.92854°
Altitude
833.702 km
Speed
7.421 km/s
True Right ascension
10h 43m 41s
True Declination
0° 00' 00"
Sunlit
Object was in daylight at epoch
Visualization orbit readout
Latitude
Unknown
Longitude
Unknown
Altitude
Unknown
Speed
Unknown
Apparent Right ascension
Unknown
Apparent Declination
Unknown
Sunlit
N/A
Visualization observer readout
Local Sidereal Time
16:47:59
Azimuth
Unknown
Elevation
Unknown
Doppler factor
Unknown
Orbital elements
Apogee altitude
836.208 km
Perigee altitude
764.451 km
Semi-major axis
7,178.467 km
Eccentricity
0.005
Inclination
66.8562°
RAAN
160.9243°
Arg. of periapsis
145.8741°
True anomaly
214.23548°
Mean anomaly
214.5587°
Eccentric anomaly
214.39692°
Mean motion
3.56858 °/min
Orbital period
100.88 mins
BSTAR
0.00035827
Loading maneuver chart data...
Computing Atmospheric mass density...

Documentation

Showing up to 5 results
|